sat.trackr.live / text

‹ back to catalog

AETHER-9

NORAD 67380 · 2026-004T

PAYLOAD ACTIVE UNKNOWN

§ Identity

Operator
Country
CA
Launch date
2026-01-11
Launch site
AFWTR
Launch vehicle
Mass (kg)
RCS (m²)

External: N2YO · Heavens-Above · Gunter

§ Orbital elements

Epoch: 2026-05-25T04:00:03.998880Z

Period
96.90 min
Inclination
97.7998°
Eccentricity
0.0000333
Mean motion
14.85998828 rev/d
Perigee alt
610.2 km
Apogee alt
610.7 km
Semi-major
6,988.6 km
B*
-6.0730e-3
RAAN
144.1274°
Arg perigee
343.1640°
Mean anomaly
331.8589°
Rev number
570

§ Raw data

AETHER-91 67380U 26004T   26145.16671295 -.00052693  00000+0 -60730-2 0  99952 67380  97.7998 144.1274 0000333 343.1640 331.8589 14.85998828  5709

JSON: /api/v1/satellites/67380 · /tle

For live sub-satellite position, see the globe view (requires WebGL).

§ Visibility from observer

Set your observer location to see the next 7 days of passes ≥ 10°. The values pass through the URL so the page stays shareable.

No JS? Fill the form by hand. The geolocation button needs JavaScript.